Weather History for Cairns, QU

Change the Weather History Date:

Saturday, June 22, 2013

  Actual Average Record
Temperature  
Mean Temperature 72 °F -  
Max Temperature 78 °F 78 °F 82 °F (2003)
Min Temperature 67 °F 63 °F 55 °F (2011)
Cooling Degree Days 8    
Growing Degree Days 22 (Base 50)    
Moisture  
Dew Point 56 °F    
Average Humidity 56    
Maximum Humidity 68    
Minimum Humidity 41    
Precipitation  
Precipitation 0.00 in 0.04 in - ()
Sea Level Pressure  
Sea Level Pressure 30.03 in    
Wind  
Wind Speed 11 mph ()    
Max Wind Speed 20 mph    
Max Gust Speed 29 mph    
Visibility 7.7 miles    
Events      
Averages and records for this station are not official NWS values.
T = Trace of Precipitation, MM = Missing Value Source: Averaged Metar Reports

Daily Weather History Graph

Daily Weather History Graph

Search for Another Location

Airport:

Trip Planner

Search our weather history database for the weather conditions in past years. The results will help you decide how hot, cold, wet, or windy it might be!

Date:

Astronomy

Jun. 22, 2013 Rise Set
Actual Time 6:45 AM EST 5:52 PM EST
Civil Twilight 6:21 AM EST 6:16 PM EST
Nautical Twilight 5:54 AM EST 6:43 PM EST
Astronomical Twilight 5:27 AM EST 7:09 PM EST
Moon 4:41 PM EST (6/22) 5:01 AM EST (6/22)
Length of Visible Light 11h 54m
Length of Day
11h 07m
Waxing Gibbous, 97% of the Moon is Illuminated
Jun 22
Waxing Gibbous
Jun 23
Full
Jun 30
Last Quarter
Jul 8
New
Jul 16
First Quarter

Hourly Weather History & Observations

Time (EST) Temp. Dew Point Humidity Pressure Visibility Wind Dir Wind Speed Gust Speed Precip Events Conditions
12:00 AM 69 °F 55 °F 52% 30.06 in - South 8.1 mph - -  
12:00 AM 69.8 °F 55.4 °F 60% 30.04 in - South 8.1 mph - N/A   Clear
12:30 AM 68.0 °F 55.4 °F 64% 30.04 in - South 8.1 mph - N/A   Clear
1:00 AM 69 °F 56 °F 53% 30.06 in - South 8.1 mph - -  
1:00 AM 68.0 °F 55.4 °F 64% 30.04 in - South 8.1 mph - N/A   Clear
1:30 AM 69.8 °F 53.6 °F 56% 30.04 in - South 9.2 mph - N/A   Clear
2:00 AM 69.8 °F 53.6 °F 56% 30.01 in - South 10.4 mph - N/A   Clear
2:30 AM 69.8 °F 53.6 °F 56% 30.01 in - South 11.5 mph - N/A   Clear
3:00 AM 70 °F 53 °F 45% 30.01 in - South 11.5 mph - -  
3:00 AM 69.8 °F 53.6 °F 56% 30.01 in - South 11.5 mph - N/A   Clear
3:30 AM 68.0 °F 55.4 °F 64% 30.01 in - South 9.2 mph - N/A   Clear
4:00 AM 68 °F 55 °F 53% 30.01 in - South 10.4 mph - -  
4:00 AM 68.0 °F 55.4 °F 64% 30.01 in - South 10.4 mph - N/A   Clear
4:30 AM 69.8 °F 55.4 °F 60% 30.01 in - South 11.5 mph - N/A   Clear
5:00 AM 68.0 °F 55.4 °F 64% 30.01 in - South 12.7 mph - N/A   Clear
5:30 AM 68.0 °F 55.4 °F 64% 30.01 in - South 12.7 mph - N/A   Clear
6:00 AM 68 °F 56 °F 57% 30.02 in 19 mi South 10.4 mph - -   Partly Cloudy
6:00 AM 68.0 °F 57.2 °F 68% 30.01 in 6.2 mi South 10.4 mph - N/A   Mostly Cloudy
6:30 AM 68.0 °F 57.2 °F 68% 30.01 in 6.2 mi South 10.4 mph - N/A   Mostly Cloudy
7:00 AM 68 °F 56 °F 58% 30.04 in - South 12.7 mph - -  
7:00 AM 68.0 °F 57.2 °F 68% 30.04 in 6.2 mi South 12.7 mph - N/A   Mostly Cloudy
7:30 AM 68.0 °F 57.2 °F 68% 30.04 in 6.2 mi South 12.7 mph - N/A   Scattered Clouds
8:00 AM 69.8 °F 55.4 °F 60% 30.04 in 6.2 mi South 13.8 mph - N/A   Scattered Clouds
8:30 AM 71.6 °F 55.4 °F 57% 30.06 in 6.2 mi South 15.0 mph - N/A   Scattered Clouds
9:00 AM 73 °F 54 °F 41% 30.08 in 19 mi South 18.4 mph - -   Partly Cloudy
9:05 AM 73.4 °F 55.4 °F 53% 30.06 in 6.2 mi South 17.3 mph 28.8 mph N/A   Scattered Clouds
9:30 AM 75.2 °F 55.4 °F 50% 30.06 in 6.2 mi South 18.4 mph - N/A   Mostly Cloudy
10:00 AM 72 °F 54 °F 43% 30.08 in - South 17.3 mph - -  
10:00 AM 73.4 °F 53.6 °F 50% 30.06 in 6.2 mi South 17.3 mph - N/A   Mostly Cloudy
10:30 AM 73.4 °F 55.4 °F 53% 30.06 in 6.2 mi South 15.0 mph - N/A   Mostly Cloudy
11:00 AM 77.0 °F 57.2 °F 50% 30.06 in 6.2 mi SSE 15.0 mph - N/A   Mostly Cloudy
11:30 AM 78.8 °F 57.2 °F 47% 30.04 in 6.2 mi SSE 12.7 mph - N/A   Scattered Clouds
12:00 PM 77 °F 58 °F 41% 30.04 in 19 mi SE 18.4 mph - -   Partly Cloudy
12:00 PM 77.0 °F 57.2 °F 50% 30.04 in 6.2 mi SE 18.4 mph - N/A   Mostly Cloudy
12:30 PM 77.0 °F 57.2 °F 50% 30.01 in 6.2 mi SE 19.6 mph - N/A   Mostly Cloudy
1:00 PM 76 °F 58 °F 43% 30.02 in - SE 18.4 mph - -  
1:00 PM 77.0 °F 57.2 °F 50% 30.01 in 6.2 mi SE 18.4 mph - N/A   Scattered Clouds
1:30 PM 77.0 °F 57.2 °F 50% 30.01 in 6.2 mi SE 19.6 mph - N/A   Scattered Clouds
2:00 PM 78.8 °F 57.2 °F 47% 29.98 in 6.2 mi SE 18.4 mph - N/A   Scattered Clouds
2:30 PM 77.0 °F 57.2 °F 50% 29.98 in 6.2 mi SE 18.4 mph - N/A   Scattered Clouds
3:00 PM 76 °F 57 °F 42% 29.99 in 19 mi SE 16.1 mph - -   Partly Cloudy
3:00 PM 77.0 °F 57.2 °F 50% 29.98 in 6.2 mi SE 16.1 mph - N/A   Scattered Clouds
3:30 PM 75.2 °F 57.2 °F 53% 29.98 in 6.2 mi SE 17.3 mph - N/A   Mostly Cloudy
4:00 PM 75 °F 57 °F 43% 30.00 in - SE 15.0 mph - -  
4:00 PM 75.2 °F 57.2 °F 53% 29.98 in 6.2 mi SE 15.0 mph - N/A   Mostly Cloudy
4:30 PM 73.4 °F 55.4 °F 53% 29.98 in 6.2 mi SSE 17.3 mph - N/A   Mostly Cloudy
5:00 PM 73.4 °F 57.2 °F 57% 30.01 in 6.2 mi SSE 15.0 mph - N/A   Mostly Cloudy
5:30 PM 71.6 °F 57.2 °F 60% 30.01 in 6.2 mi South 10.4 mph - N/A   Mostly Cloudy
6:00 PM 71 °F 57 °F 52% 30.02 in - South 10.4 mph - -  
6:00 PM 71.6 °F 57.2 °F 60% 30.01 in 6.2 mi South 10.4 mph - N/A   Unknown
6:30 PM 69.8 °F 57.2 °F 64% 30.04 in 6.2 mi SSE 12.7 mph - N/A   Scattered Clouds
7:00 PM 69 °F 56 °F 55% 30.05 in - South 9.2 mph - -  
7:00 PM 69.8 °F 57.2 °F 64% 30.04 in - South 9.2 mph - N/A   Clear
7:30 PM 68.0 °F 55.4 °F 64% 30.04 in - South 11.5 mph - N/A   Clear
8:00 PM 68.0 °F 55.4 °F 64% 30.04 in - South 12.7 mph - N/A   Clear
8:30 PM 68.0 °F 57.2 °F 68% 30.06 in - South 10.4 mph - N/A   Clear
9:00 PM 67 °F 56 °F 58% 30.07 in - South 10.4 mph - -  
9:00 PM 68.0 °F 55.4 °F 64% 30.06 in - South 10.4 mph - N/A   Clear
9:30 PM 68.0 °F 55.4 °F 64% 30.06 in - South 12.7 mph - N/A   Clear
10:00 PM 67 °F 56 °F 59% 30.09 in - South 11.5 mph - -  
10:00 PM 68.0 °F 55.4 °F 64% 30.06 in 6.2 mi South 11.5 mph - N/A   Partly Cloudy
10:30 PM 68.0 °F 55.4 °F 64% 30.06 in 6.2 mi South 12.7 mph - N/A   Partly Cloudy
11:00 PM 68.0 °F 57.2 °F 68% 30.06 in 6.2 mi South 12.7 mph - N/A   Partly Cloudy
11:30 PM 68.0 °F 57.2 °F 68% 30.06 in 6.2 mi South 10.4 mph - N/A   Scattered Clouds